Location: Larne
(54.8508°N, 5.8183°W)
Time: 12:51:56
(UTC+01:00)

ISS - Pass Details

Date: 01 October 2021
Orbit: 417 x 423 km, 51.6° (Epoch: 16 October)

Event Time Altitude Azimuth Distance (km) Brightness Sun altitude
Rises 20:47:32 0° 275° (W) 2,367 1.7 -16.3°
Reaches altitude 10° 20:50:01 10° 258° (WSW) 1,501 -0.1 -16.7°
Maximum altitude 20:52:29 19° 210° (SSW) 1,062 -1.6 -17.0°
Enters shadow 20:53:47 16° 181° (S) 1,196 -1.6 -17.2°
